Weather in Kalynivka

Ukraine / Kirovohrad Region     48°23′29″N   32°22′02″E
temp.,
°C
wind,
m/s
gust,
m/s
humid.,
%
clouds,
%
prec.,
mm/h
press.,
hPa
HPBL,
m
13 april, tue
tue1300:00+9sse2283100 0.0 102037
03:00+9sse2385100 0.0 102066
06:00+8sse2288100 0.0 102058
09:00+10sse3481100 0.0 1021384
12:00+11sse5671100 0.0 1020853
15:00+12ssw566799 0.1 1020985
18:00+11ssw347485 0.0 1019501
21:00+9ssw2383100 0.0 1019135
14 april, wed
wed1400:00+9s248487 0.0 1018143
03:00+7s349113 0.0 101881
06:00+5s349597 0.0 101883
09:00+9s457965 0.0 1017481
12:00+14s465612 0.0 10161335
15:00+14sse565489 0.1 10151518
18:00+13sse2362100 0.1 1014137
21:00+11e3370100 0.1 101433
15 april, thu
thu1500:00+11se61070100 0.0 1013422
03:00+9se2482100 0.0 1013180
06:00+8se358799 0.0 1013329
09:00+8ese3690100 0.6 1012326
12:00+10se71186100 1.8 10121013
15:00+8s5989100 2.4 1012599
18:00+10ssw587552 0.3 1012765
21:00+7sw4781100 0.4 1013477
16 april, fri
fri1600:00+5ssw488491 0.0 1013563
03:00+4ssw248993 0.0 1013103
06:00+5se378696 0.0 1013247
09:00+8sse696876 0.1 1013969
12:00+12s8946100 0.4 10132262
15:00+11s574993 0.4 10141791
18:00+12s364465 0.0 10141858
21:00+8s226255 0.0 101620
17 april, sat
sat1700:00+5wsw347415 0.0 101777
03:00+4ssw22845 0.0 101821
06:00+4ssw22895 0.0 101819
09:00+8s23665 0.0 1019481
12:00+12ssw335075 0.0 10191623
15:00+12s2248100 0.1 10191535
18:00+11ssw116098 0.0 1020148
21:00+10ese346697 0.0 102194